[[{"header":{"parameterUnit":"m.s-1","parameterCategory":1,"la1":30.2991,"la2":30.254,"lo1":-89.0895,"lo2":-89.0444,"dy":0.0017,"dx":0.0017,"nx":28,"ny":28,"refTime":"2024-05-02T03:00:00:Z","depth":0,"parameterNumber":2,"parameterNumberName":"U-component_of_WINDS"},"data":[0,0,0,0,0,0,0,0,0,0,0,0,0,0,0,0,0,0,0,0,0,0,0,0,0,0,0,0,0,0,0,0,0,0,0,0,0,0,0,0,0,0,0,0,0,0,0,0,0,0,0,0,0,0,0,0,0,0,-1.6945,-1.6945,0,-1.6955,-1.6955,-1.6955,-1.6924,-1.6923,-1.6922,-1.6921,-1.6931,-1.6932,-1.6933,0,0,0,0,0,0,0,0,0,0,0,0,0,-1.6897,-1.6898,-1.6945,-1.6945,-1.6945,-1.6955,-1.6955,-1.6956,-1.6924,-1.6923,-1.6922,-1.692,-1.6931,-1.6932,-1.6933,0,0,0,0,0,0,0,0,0,0,0,0,0,-1.6913,-1.6898,-1.6945,-1.693,-1.6929,-1.6955,-1.6955,-1.6956,-1.6924,-1.6923,-1.6921,-1.692,-1.693,-1.6932,-1.6934,-1.6974,0,0,-1.6939,-1.694,0,0,0,0,0,0,0,0,-1.6912,-1.6915,-1.6932,-1.6931,-1.693,-1.6937,-1.6942,-1.6962,-1.6924,-1.6926,-1.6921,-1.6919,-1.6934,-1.6935,-1.6941,-1.6974,-1.6975,-1.6939,-1.694,-1.6941,-1.6942,0,0,0,0,0,0,0,-1.6911,-1.6914,-1.6949,-1.6933,-1.6931,-1.6923,-1.6924,-1.6946,-1.6938,-1.6926,-1.6923,-1.6925,-1.6933,-1.6939,-1.6941,-1.6975,-1.6939,-1.6941,-1.6942,-1.6943,-1.7042,-1.7044,0,0,0,0,0,0,-1.6912,-1.6914,-1.6948,-1.6949,-1.6918,-1.6925,-1.6926,-1.6936,-1.6938,-1.6937,-1.6926,-1.6924,-1.6937,-1.6939,-1.6941,-1.6988,-1.6941,-1.6943,-1.6944,-1.7041,-1.7043,-1.7045,0,0,0,0,0,0,-1.6911,-1.6915,-1.6948,-1.6931,-1.6934,-1.6928,-1.6939,-1.6937,-1.6943,-1.6938,-1.6937,-1.6934,-1.6936,-1.6938,-1.6966,-1.6988,-1.6944,-1.6945,-1.7039,-1.7041,-1.7044,-1.7083,0,0,0,0,0,0,-1.691,-1.6915,-1.693,-1.6931,-1.6935,-1.6973,-1.694,-1.6938,-1.6946,-1.6942,-1.6945,-1.6944,-1.6935,-1.6964,-1.6968,-1.699,-1.6947,-1.7037,-1.704,-1.7043,-1.708,-1.7086,-1.7092,0,0,0,0,0,-1.6908,-1.6941,-1.6931,-1.6936,-1.6954,-1.6974,-1.6977,-1.6966,-1.6948,-1.6963,-1.696,-1.6944,-1.6985,-1.6967,-1.6971,-1.6994,-1.7036,-1.7039,-1.7043,-1.7077,-1.7085,-1.7092,0,0,0,0,0,0,-1.6942,-1.6941,-1.693,-1.6964,-1.697,-1.6969,-1.6988,-1.6975,-1.6985,-1.6982,-1.6968,-1.6968,-1.6999,-1.6999,-1.6978,-1.7033,-1.7007,-1.7012,-1.7032,-1.7039,-1.7046,-1.7045,-1.6948,0,0,0,0,0,-1.6954,-1.697,-1.6968,-1.6998,-1.7002,-1.6994,-1.7003,-1.6994,-1.6999,-1.7001,-1.7,-1.7006,-1.702,-1.703,-1.7043,-1.708,-1.708,-1.7098,-1.7104,-1.7109,-1.7113,-1.7133,-1.7141,-1.7056,-1.7056,-1.7056,0,0,-1.6977,-1.6979,-1.699,-1.7005,-1.7008,-1.7026,-1.6997,-1.7016,-1.7029,-1.7004,-1.703,-1.703,-1.7035,-1.7068,-1.7082,-1.7069,-1.7137,-1.7114,-1.7118,-1.7119,-1.7138,-1.7146,-1.7153,-1.7059,-1.7058,-1.7058,0,0,-1.703,-1.7032,-1.7058,-1.7062,-1.7068,-1.7063,-1.7069,-1.7071,-1.707,-1.7096,-1.7078,-1.7093,-1.7117,-1.7122,-1.7128,-1.7183,-1.7168,-1.7187,-1.722,-1.724,-1.7246,-1.7252,-1.7272,-1.7279,-1.7192,-1.7192,-1.7192,0,-1.7058,-1.7084,-1.7073,-1.7094,-1.7101,-1.708,-1.7106,-1.711,-1.712,-1.7125,-1.7111,-1.7142,-1.7144,-1.7177,-1.7191,-1.7196,-1.7203,-1.7187,-1.7246,-1.7252,-1.7257,-1.7276,-1.7284,-1.7194,-1.7194,-1.7193,-1.7193,0,-1.7119,-1.7138,-1.7158,-1.7168,-1.7178,-1.7201,-1.7193,-1.7204,-1.7195,-1.7191,-1.7219,-1.722,-1.7233,-1.7241,-1.7232,-1.7273,-1.7265,-1.7249,-1.7222,-1.7268,-1.7285,-1.7292,-1.7197,-1.7196,-1.7196,-1.7195,0,0,-1.7193,-1.7197,-1.7204,-1.7209,-1.7214,-1.7228,-1.7251,-1.7264,-1.7274,-1.7281,-1.73,-1.7322,-1.7307,-1.7313,-1.7304,-1.7322,-1.7366,-1.7303,-1.7303,-1.7315,-1.7412,-1.7424,-1.7433,-1.7356,-1.7357,-1.7358,-1.7412,0,-1.7244,-1.7283,-1.7274,-1.7313,-1.733,-1.731,-1.733,-1.7335,-1.7333,-1.7347,-1.7344,-1.736,-1.7339,-1.7343,-1.7359,-1.7357,-1.7385,-1.7353,-1.7373,-1.7374,-1.7372,-1.7442,-1.7455,-1.7505,-1.7418,-1.7419,-1.742,0,-1.731,-1.732,-1.7361,-1.7364,-1.737,-1.7388,-1.74,-1.7414,-1.7419,-1.7417,-1.7424,-1.7412,-1.7435,-1.7409,-1.7439,-1.7418,-1.7426,-1.7426,-1.7428,-1.7429,-1.74,-1.7445,-1.7521,-1.7528,-1.7431,-1.743,-1.7429,0,-1.7359,-1.7384,-1.7411,-1.7416,-1.742,-1.7433,-1.7435,-1.7439,-1.7448,-1.7458,-1.7464,-1.7476,-1.7483,-1.7493,-1.7485,-1.7467,-1.7518,-1.7491,-1.7516,-1.7516,-1.7527,-1.7527,-1.7605,-1.7532,-1.7532,-1.7532,-1.7532,0,-1.7418,-1.7444,-1.7434,-1.7451,-1.7479,-1.7468,-1.7496,-1.7496,-1.75,-1.7517,-1.7501,-1.7516,-1.7505,-1.752,-1.7513,-1.754,-1.7543,-1.7542,-1.754,-1.7543,-1.7543,-1.7548,-1.7544,-1.7534,-1.7534,-1.7533,-1.7533,0,-1.7478,-1.7473,-1.7501,-1.7503,-1.7504,-1.7525,-1.7526,-1.7542,-1.7539,-1.756,-1.7564,-1.7559,-1.7576,-1.7569,-1.7587,-1.7582,-1.7617,-1.761,-1.7615,-1.7613,-1.7639,-1.7637,-1.7723,-1.7734,-1.7654,-1.7655,-1.7656,0,-1.7516,-1.7535,-1.7539,-1.7549,-1.7553,-1.7569,-1.7579,-1.7569,-1.7579,-1.7587,-1.7602,-1.7617,-1.7629,-1.7657,-1.7655,-1.7668,-1.7662,-1.7691,-1.7664,-1.7667,-1.7663,-1.7662,-1.7664,-1.7697,-1.7698,-1.7698,-1.7699,0,-1.7584,-1.758,-1.7594,-1.7607,-1.7618,-1.7628,-1.7636,-1.7646,-1.7636,-1.7648,-1.7665,-1.7675,-1.7693,-1.7709,-1.7721,-1.7723,-1.771,-1.7708,-1.7714,-1.7718,-1.772,-1.772,-1.763,-1.7706,-1.7705,-1.7705,-1.7704,-1.7704,-1.7634,-1.765,-1.7656,-1.7672,-1.7677,-1.7686,-1.7701,-1.77,-1.7714,-1.7728,-1.7722,-1.7742,-1.7747,-1.7762,-1.7766,-1.7782,-1.777,-1.778,-1.7782,-1.7785,-1.7788,-1.7718,-1.7784,-1.7784,-1.7784,-1.7784,-1.7783,0,-1.7701,-1.7704,-1.7719,-1.7731,-1.7744,-1.7731,-1.7739,-1.7751,-1.7769,-1.7775,-1.7788,-1.7808,-1.7823,-1.7822,-1.7836,-1.7849,-1.7843,-1.7853,-1.7852,-1.7853,-1.7798,-1.7791,-1.7857,-1.7857,-1.7857,-1.7857,-1.7857,-1.7857,-1.7737,-1.7765,-1.7762,-1.7792,-1.7795,-1.7814,-1.7821,-1.7828,-1.7833,-1.7857,-1.7869,-1.7869,-1.7873,-1.7887,-1.7901,-1.79,-1.7906,-1.7918,-1.7915,-1.7864,-1.7857,-1.785,-1.7843,-1.792,-1.792,-1.7969,-1.797,-1.797]},{"header":{"parameterUnit":"m.s-1","parameterCategory":1,"la1":30.2991,"la2":30.254,"lo1":-89.0895,"lo2":-89.0444,"dy":0.0017,"dx":0.0017,"nx":28,"ny":28,"refTime":"2024-05-02T03:00:00:Z","depth":0,"parameterNumber":3,"parameterNumberName":"V-component_of_WINDS"},"data":[0,0,0,0,0,0,0,0,0,0,0,0,0,0,0,0,0,0,0,0,0,0,0,0,0,0,0,0,0,0,0,0,0,0,0,0,0,0,0,0,0,0,0,0,0,0,0,0,0,0,0,0,0,0,0,0,0,0,2.3113,2.3112,0,2.3097,2.3097,2.3097,2.3061,2.3061,2.306,2.3059,2.3044,2.3045,2.3045,0,0,0,0,0,0,0,0,0,0,0,0,0,2.3113,2.3114,2.3113,2.3112,2.3112,2.3097,2.3097,2.3097,2.3061,2.3061,2.306,2.3059,2.3044,2.3045,2.3045,0,0,0,0,0,0,0,0,0,0,0,0,0,2.3107,2.3114,2.3113,2.3093,2.3091,2.3097,2.3097,2.3096,2.3062,2.3061,2.306,2.3058,2.3044,2.3045,2.3045,2.3069,0,0,2.3046,2.3046,0,0,0,0,0,0,0,0,2.3107,2.3107,2.3096,2.3094,2.3092,2.308,2.3091,2.3087,2.3062,2.3073,2.3059,2.3058,2.3057,2.3056,2.3056,2.3069,2.3068,2.3046,2.3047,2.3047,2.3047,0,0,0,0,0,0,0,2.3108,2.3107,2.3106,2.3096,2.3093,2.3085,2.3083,2.3091,2.3071,2.3072,2.3069,2.3068,2.3056,2.3056,2.3055,2.3068,2.3046,2.3047,2.3047,2.3047,2.31,2.3101,0,0,0,0,0,0,2.3111,2.3108,2.3107,2.3106,2.3097,2.3086,2.3084,2.3085,2.3071,2.3068,2.3069,2.3066,2.3055,2.3055,2.3055,2.3082,2.3047,2.3047,2.3047,2.3099,2.31,2.3101,0,0,0,0,0,0,2.3111,2.3111,2.3107,2.3106,2.3105,2.3087,2.3089,2.3085,2.3085,2.3069,2.3065,2.3072,2.3055,2.3054,2.3066,2.3081,2.3047,2.3048,2.3097,2.3099,2.3101,2.3137,0,0,0,0,0,0,2.3111,2.3111,2.312,2.3107,2.3105,2.3119,2.309,2.3086,2.3086,2.3082,2.3071,2.3068,2.3054,2.3065,2.3066,2.3081,2.3048,2.3096,2.3098,2.31,2.3135,2.314,2.3145,0,0,0,0,0,2.3111,2.3131,2.3121,2.3121,2.3116,2.312,2.3119,2.3102,2.3087,2.3096,2.3085,2.3068,2.3079,2.3067,2.3068,2.3083,2.3095,2.3097,2.31,2.3132,2.3139,2.3145,0,0,0,0,0,0,2.3148,2.3129,2.3117,2.3133,2.3128,2.3114,2.3124,2.3109,2.3109,2.3105,2.3085,2.3082,2.3097,2.3091,2.3078,2.3106,2.3084,2.3087,2.3109,2.3115,2.312,2.3121,2.3048,0,0,0,0,0,2.3157,2.3162,2.3146,2.3161,2.3159,2.3142,2.3143,2.3131,2.3125,2.3122,2.3113,2.3108,2.311,2.3112,2.3114,2.3134,2.3131,2.3145,2.315,2.3154,2.3156,2.3167,2.3173,2.311,2.311,2.311,0,0,2.3178,2.3168,2.3172,2.3168,2.3163,2.3168,2.3141,2.3147,2.3151,2.3123,2.3134,2.3127,2.312,2.3136,2.3143,2.3132,2.3173,2.3157,2.3161,2.3161,2.317,2.3176,2.3181,2.3111,2.3111,2.3111,0,0,2.3217,2.321,2.3223,2.3218,2.321,2.3198,2.3202,2.3189,2.3183,2.3193,2.3173,2.3177,2.3182,2.3178,2.3176,2.3215,2.3199,2.3216,2.3242,2.3252,2.3257,2.3261,2.3275,2.328,2.3219,2.3219,2.3219,0,2.3243,2.325,2.3231,2.3239,2.3238,2.3213,2.3226,2.3222,2.3215,2.3215,2.3203,2.3208,2.3202,2.3216,2.3226,2.3225,2.3228,2.3217,2.3258,2.3262,2.3266,2.3278,2.3284,2.3221,2.3221,2.322,2.322,0,2.3283,2.3288,2.3299,2.3292,2.3292,2.3303,2.3286,2.3288,2.3276,2.3266,2.3277,2.3268,2.3268,2.327,2.3258,2.3283,2.3277,2.3262,2.324,2.3274,2.3286,2.329,2.3224,2.3223,2.3222,2.3222,0,0,2.3344,2.3327,2.3331,2.3328,2.3317,2.3321,2.3331,2.3329,2.3332,2.3328,2.3336,2.334,2.3326,2.3325,2.3312,2.3321,2.3352,2.3305,2.3304,2.3314,2.3379,2.339,2.3396,2.3342,2.3342,2.3343,2.338,0,2.3381,2.3395,2.3378,2.3396,2.3401,2.3378,2.3386,2.338,2.3372,2.3374,2.3365,2.3368,2.3349,2.3348,2.3356,2.3347,2.3365,2.3344,2.3348,2.3349,2.335,2.3402,2.3414,2.3449,2.3384,2.3385,2.3385,0,2.3425,2.3423,2.3442,2.343,2.3431,2.3439,2.3436,2.3439,2.3433,2.3426,2.3425,2.3409,2.3418,2.3397,2.3409,2.3395,2.3396,2.3392,2.3393,2.3392,2.3369,2.3403,2.346,2.3465,2.3392,2.3392,2.3391,0,2.3468,2.347,2.3481,2.3479,2.3466,2.3472,2.3466,2.3459,2.3459,2.3458,2.3458,2.3457,2.3457,2.3457,2.3442,2.3429,2.3456,2.3434,2.3451,2.3451,2.3457,2.3457,2.3515,2.3459,2.3459,2.3459,2.3458,0,2.351,2.3522,2.35,2.3507,2.352,2.3501,2.3515,2.3507,2.3501,2.3506,2.3486,2.3492,2.3472,2.3476,2.3464,2.3476,2.3476,2.3471,2.3467,2.3472,2.3473,2.3472,2.3469,2.346,2.346,2.3459,2.3459,0,2.356,2.3545,2.3556,2.3542,2.3539,2.355,2.3538,2.3544,2.3534,2.3541,2.3542,2.3527,2.353,2.3515,2.3516,2.3508,2.3525,2.3518,2.3527,2.3525,2.3543,2.3541,2.3602,2.3609,2.3548,2.3549,2.355,0,2.3588,2.3596,2.3584,2.3586,2.3582,2.3585,2.3585,2.3568,2.3569,2.3562,2.3569,2.3571,2.3571,2.3577,2.3566,2.3567,2.3559,2.3581,2.3559,2.3564,2.3559,2.3559,2.356,2.3585,2.3586,2.3586,2.3587,0,2.3639,2.3631,2.3632,2.363,2.3631,2.3629,2.3626,2.3629,2.361,2.3612,2.3615,2.3615,2.3616,2.3618,2.3616,2.3611,2.3596,2.3594,2.3597,2.3602,2.3607,2.3605,2.3539,2.3592,2.3592,2.3591,2.3591,2.3591,2.3678,2.3685,2.3677,2.3679,2.3674,2.3672,2.3677,2.3668,2.3669,2.3668,2.3658,2.3663,2.3657,2.3653,2.3649,2.3653,2.3643,2.3649,2.365,2.3652,2.3655,2.3607,2.3653,2.3653,2.3652,2.3652,2.3652,0,2.3728,2.3722,2.3723,2.3719,2.3721,2.3706,2.3702,2.3705,2.3709,2.3704,2.3705,2.3708,2.371,2.3699,2.37,2.3705,2.3698,2.3706,2.3705,2.3704,2.3664,2.366,2.3711,2.3711,2.3711,2.3711,2.3711,2.3711,2.3754,2.3764,2.3756,2.3764,2.3758,2.3762,2.3761,2.3759,2.3755,2.376,2.3761,2.3754,2.3747,2.3747,2.3748,2.3745,2.3746,2.3756,2.375,2.3713,2.3707,2.3701,2.3698,2.3756,2.3756,2.379,2.379,2.3791]}]]